Lapse_Rate
4.8 5.3 5.2 5.3 5.2 5.2 5.4 5.3 5.4 5.1 5.3 5.2 5.1 5.3 5.4 5.3 5.6 5.7 5.4 5.7 6.0 6.1 6.1 6.2 6.2 6.7 6.8
5.0 5.5 5.4 5.3 5.3 5.2 5.3 5.4 5.3 5.4 5.4 5.1 4.9 5.1 5.4 5.5 5.5 5.5 5.6 5.9 6.0 6.0 6.0 6.2 6.3 6.6 6.6
5.0 5.2 5.3 5.2 5.2 5.3 5.4 5.4 5.3 5.3 5.4 5.0 4.9 4.9 5.4 5.6 5.6 5.5 5.7 5.8 5.9 6.0 6.2 6.2 6.4 6.4 6.5
5.1 5.3 5.3 5.3 5.3 5.3 5.2 5.3 5.3 5.5 5.3 5.1 4.9 4.7 5.0 5.2 5.4 5.8 5.8 5.8 5.8 6.1 6.2 6.3 6.3 6.3 6.3
5.3 5.3 5.4 5.4 5.4 5.3 5.2 5.3 5.2 5.5 5.4 5.2 5.0 4.9 4.6 5.3 5.5 5.6 5.6 5.6 5.9 6.0 6.2 6.4 6.3 6.0 6.0
5.4 5.5 5.5 5.4 5.5 5.4 5.3 5.4 5.3 5.4 5.3 5.3 5.1 4.7 5.0 5.1 5.2 5.4 5.8 5.8 5.9 6.0 6.1 6.4 6.1 6.0 5.9
5.1 5.2 5.1 5.5 5.1 5.3 5.5 5.4 5.3 5.2 4.8 4.9 4.9 4.5 4.6 4.9 5.1 5.3 5.7 5.7 5.8 5.8 6.1 6.2 6.0 5.8 5.9
5.1 4.9 4.9 4.8 5.1 5.4 5.5 5.0 4.9 5.1 5.3 5.3 5.1 4.7 4.4 4.6 5.2 5.5 5.7 5.8 5.9 6.1 6.0 6.1 5.9 5.7 5.8
4.9 4.8 5.1 5.1 4.9 5.4 5.3 5.4 5.6 5.6 5.5 5.2 5.2 4.8 4.7 4.7 5.2 5.8 6.0 6.0 6.2 6.1 6.0 5.9 5.9 5.6 5.7
4.8 5.0 4.9 4.9 5.1 5.5 5.4 5.4 5.3 5.5 5.5 5.4 5.2 5.0 5.0 5.1 5.1 5.9 6.0 6.2 6.3 6.2 6.1 5.8 5.6 5.6 5.7
4.7 4.8 4.9 5.4 5.6 6.0 5.8 6.0 5.5 5.6 5.3 5.1 5.3 5.5 5.3 5.3 5.2 5.6 6.0 6.2 6.2 6.2 5.9 5.7 5.6 5.5 5.5
4.4 4.6 5.0 5.5 6.0 6.2 6.2 6.0 6.0 6.0 5.8 5.8 5.7 5.7 5.7 5.7 5.6 5.5 5.9 6.3 6.2 6.2 6.2 6.2 5.6 5.9 5.9
4.0 4.4 5.5 6.7 6.7 6.7 6.8 6.6 6.5 6.4 6.1 6.0 6.0 6.0 5.9 5.9 5.9 5.6 6.0 6.0 6.1 6.4 6.5 6.4 6.2 5.8 6.1
3.9 4.7 6.2 6.8 7.0 6.9 6.7 6.6 6.6 6.4 6.4 6.3 6.3 6.2 6.2 6.3 6.2 5.8 5.9 6.1 6.3 6.4 6.4 6.3 5.9 5.9 5.8
4.1 5.4 6.7 7.0 7.2 7.0 6.6 6.8 6.6 6.5 6.4 6.4 6.4 6.4 6.4 6.3 6.3 6.1 6.1 6.2 6.3 6.5 6.4 6.3 6.3 6.2 6.5
4.5 6.1 6.9 7.0 7.1 6.9 6.7 6.5 6.1 6.2 6.2 6.2 6.4 6.4 6.4 6.3 6.1 6.2 6.3 6.4 6.5 6.5 6.6 6.5 6.4 6.4 6.6
5.4 6.7 7.2 7.4 7.3 7.1 6.9 6.7 6.1 6.0 6.0 6.0 6.4 6.4 6.4 6.4 6.0 6.2 6.3 6.4 6.5 6.6 6.5 6.5 6.6 6.7 6.7
Wind_Speed
2 1 5 4 4 10 11 14 13 16 16 15 13 13 14 10 7 6 9 13 16 19 20 24 26 27 28
4 4 6 5 6 8 7 12 10 15 16 16 13 12 13 9 7 5 8 11 15 18 20 23 26 27 29
6 2 3 2 2 3 5 4 8 12 15 14 13 12 12 9 6 4 7 10 13 17 19 23 24 25 26
7 3 2 2 3 3 3 3 5 6 9 11 13 13 13 10 7 6 5 9 12 16 18 21 23 21 22
10 4 4 3 6 5 7 5 4 4 5 6 6 6 8 11 8 6 3 7 11 14 17 20 18 13 18
6 6 8 5 3 6 6 4 4 6 4 3 6 4 5 6 7 2 3 6 9 11 15 18 9 9 13
7 8 6 7 5 4 3 2 1 3 3 3 2 3 5 5 4 2 3 6 7 9 12 15 3 4 10
6 4 3 5 9 6 5 4 4 2 2 3 2 2 3 4 4 2 2 4 5 8 11 12 4 5 11
5 5 8 13 10 7 5 6 3 4 3 3 3 3 2 3 6 4 4 2 4 8 9 6 12 14 16
1 2 6 7 15 3 6 7 2 2 4 4 2 3 2 2 2 5 6 5 2 5 8 4 6 10 9
3 3 3 4 4 4 6 4 3 2 5 4 3 2 1 2 1 2 3 2 1 1 6 7 9 8 7
3 4 4 4 3 3 4 5 5 3 9 4 3 3 3 2 2 0 1 2 1 0 3 8 11 12 10
6 6 2 1 3 3 2 9 9 8 9 6 3 4 3 3 3 3 3 2 3 1 0 2 1 4 5
6 2 3 3 4 3 2 2 2 3 4 7 6 4 3 2 3 3 2 3 4 3 1 2 3 4 6
4 5 5 5 4 4 2 3 2 5 4 2 6 4 3 3 2 3 3 2 3 5 2 1 0 4 6
6 6 6 6 6 4 3 3 5 4 4 4 4 2 1 2 4 3 2 3 2 4 2 3 2 2 6
7 7 7 7 9 7 7 6 5 5 4 4 5 4 5 5 1 8 3 2 4 2 2 2 3 3 6
Wind_Direction
222 165 188 167 201 214 204 203 196 204 207 215 220 223 231 232 241 279 308 317 320 322 327 324 325 321 319
205 218 216 211 210 194 203 203 195 210 209 212 211 220 230 219 235 282 308 317 322 326 326 326 324 322 321
244 175 207 141 168 218 203 188 190 190 202 222 216 220 211 215 232 280 301 317 325 325 327 326 321 320 326
252 208 180 177 190 190 192 196 189 182 209 221 215 214 214 219 219 236 288 318 324 326 326 323 321 321 337
243 202 186 174 209 186 204 185 194 172 197 199 197 201 213 220 215 221 289 314 327 326 325 324 319 338 350
245 229 234 222 217 205 192 159 188 177 192 195 179 179 190 194 161 176 300 322 322 324 326 324 321 14 14
225 211 215 190 163 165 166 38 78 122 147 172 150 209 152 129 165 204 307 312 313 322 330 327 310 57 58
246 227 239 182 173 154 134 87 43 117 201 134 149 201 117 160 184 204 293 315 329 334 332 331 141 100 96
279 192 183 171 160 133 150 134 157 185 209 123 170 142 150 179 180 216 233 251 312 338 338 352 126 99 100
251 184 192 183 176 184 157 166 156 124 168 160 123 135 199 173 150 203 214 216 244 10 9 30 81 112 98
214 196 207 191 183 174 173 148 156 149 171 137 140 128 109 115 158 198 218 214 222 355 10 46 67 126 123
212 215 208 201 189 188 160 125 103 117 160 125 140 144 137 135 168 127 231 121 323 72 9 37 87 91 110
227 227 219 356 93 86 74 116 101 101 125 137 134 134 143 154 157 172 153 188 183 205 64 84 66 81 107
229 192 143 166 176 152 163 197 123 121 93 122 124 125 142 136 132 144 158 164 173 184 130 76 93 110 122
198 191 196 198 200 164 180 166 201 158 148 131 109 106 66 125 135 156 151 136 154 170 134 103 143 151 128
219 208 206 195 190 179 173 188 183 176 165 147 136 116 124 218 231 155 138 132 138 170 160 127 141 166 136
231 225 215 201 187 187 191 183 182 153 156 137 163 164 180 188 110 210 146 133 138 144 166 161 144 157 154